Probability
4 4 4 2 0 0 0 0 0 0 0 0 0 0 0 0 0 0 0 0 0 0 0 0 0 0 0 0 0 0 0 0 0 0 0 0 0 0 0 0 0 0 0
9 6 5 3 0 0 0 0 0 0 0 0 0 0 0 0 0 0 0 0 0 0 0 0 0 0 0 0 0 0 0 0 0 0 0 0 0 0 0 0 0 0 0
12 8 5 3 1 0 0 0 0 0 0 0 0 0 0 0 0 0 0 0 0 0 0 0 0 0 0 0 0 0 0 0 0 0 0 0 0 0 0 0 0 0 0
10 7 6 4 2 0 0 0 0 0 0 0 0 0 0 0 0 0 0 0 0 0 0 0 0 0 0 0 0 0 0 0 0 0 0 0 0 0 0 0 0 0 0
12 11 10 9 4 0 0 0 0 0 0 0 0 0 0 0 0 0 0 0 0 0 0 0 0 0 0 0 0 0 0 0 0 0 0 0 0 0 0 0 0 0 0
17 14 15 14 8 2 0 0 0 0 0 0 0 0 0 0 0 0 0 0 0 0 0 0 0 0 0 0 0 0 0 0 0 0 0 0 0 0 0 0 0 0 0
18 15 16 18 13 4 1 0 0 0 0 0 0 0 0 0 0 0 0 0 0 0 0 0 0 0 0 0 0 0 0 0 0 0 0 0 0 0 0 0 0 0 0
24 18 15 17 14 6 2 0 0 0 0 0 0 0 0 0 0 0 0 0 0 0 0 0 0 0 0 0 0 0 0 0 0 0 0 0 0 0 0 0 0 0 0
34 25 15 11 11 7 3 1 0 0 0 0 0 0 0 0 0 0 0 0 0 0 0 0 0 0 0 0 0 0 1 1 1 0 0 0 0 0 0 0 0 0 0
40 29 16 10 9 7 5 2 0 0 0 0 0 0 0 0 0 0 0 0 0 0 0 0 0 0 0 0 0 1 2 2 1 0 0 0 0 0 0 0 0 0 0
41 31 20 15 11 8 6 5 3 1 1 0 0 0 0 0 0 0 1 1 0 0 0 0 0 0 0 0 0 1 2 2 1 0 0 0 0 0 0 0 0 0 0
39 33 29 27 20 12 10 11 7 4 3 2 1 2 1 1 1 1 2 1 0 0 0 0 0 0 0 0 0 0 1 1 0 0 0 0 0 0 0 0 0 0 0
37 34 36 41 34 24 20 18 13 10 9 7 5 4 3 3 3 3 3 2 0 0 0 0 0 0 0 0 0 0 1 0 0 0 0 0 0 0 0 0 0 0 0
43 38 42 52 51 44 36 26 20 18 14 13 13 9 5 5 5 5 5 3 1 0 0 0 0 0 0 0 0 0 0 0 0 0 0 0 1 1 0 0 0 0 0
55 49 53 62 64 61 53 41 33 28 22 23 23 17 11 10 11 11 9 6 1 0 0 0 0 0 0 0 0 0 0 0 0 0 0 0 1 1 0 0 0 0 0
65 61 66 71 71 69 64 56 49 41 34 33 33 26 18 17 19 18 15 8 3 1 1 0 0 0 0 0 0 0 0 0 0 0 0 0 1 1 0 0 0 0 0
69 69 71 72 70 68 67 63 56 49 44 42 40 34 25 23 23 22 18 11 6 4 2 0 0 0 0 0 0 0 0 1 1 1 0 0 0 0 0 0 0 0 0
73 73 71 68 67 66 65 63 57 51 49 48 45 39 32 27 24 21 17 12 9 7 3 1 0 0 0 0 0 0 0 2 2 1 0 1 1 0 0 0 0 0 0
75 74 71 66 64 63 61 60 56 52 51 49 46 41 37 31 25 20 16 13 10 8 5 2 0 0 0 0 0 0 0 1 1 1 1 1 1 0 0 0 0 0 0
73 73 70 65 62 60 57 54 53 52 51 48 43 40 37 31 25 20 18 15 11 9 7 5 2 1 0 0 0 0 0 0 0 1 1 1 1 0 0 0 0 0 0
69 69 66 62 59 56 53 49 48 49 48 45 39 35 31 26 22 21 21 19 15 13 11 9 6 2 0 0 0 0 0 0 0 0 0 0 0 0 0 1 0 0 0
66 65 62 59 55 51 47 43 41 42 43 41 36 30 24 20 19 20 22 20 18 16 13 11 8 5 2 0 0 0 0 0 0 0 0 0 0 0 0 0 0 0 0
63 62 59 54 49 44 40 37 34 35 36 35 33 28 23 19 18 21 22 20 17 15 12 11 9 6 4 2 2 1 0 0 0 0 0 0 0 0 0 0 0 0 0
59 56 52 47 42 36 33 32 29 29 31 33 33 31 26 21 20 22 24 22 18 14 11 10 9 7 6 5 3 2 1 1 0 0 0 0 0 0 0 0 0 0 0
51 47 43 39 34 31 29 27 26 26 28 31 33 33 28 23 21 22 24 23 19 14 12 10 9 9 7 6 4 3 3 2 1 0 0 0 0 0 0 0 0 0 0
44 41 38 35 30 28 27 25 24 25 27 28 30 30 28 25 22 19 21 23 20 16 13 11 10 9 8 6 4 3 3 2 1 0 0 0 0 0 0 0 0 0 0
Wind_Speed
19 18 17 16 16 15 15 15 14 14 14 13 13 13 13 13 14 14 13 13 13 13 14 13 13 14 14 15 15 16 15 15 16 16 17 16 15 13 12 14 16 13 16
22 19 18 17 16 15 15 15 15 14 14 13 13 13 12 13 13 13 13 13 13 14 14 14 14 14 14 14 14 14 13 13 14 16 17 15 14 13 12 14 16 11 15
22 19 18 16 16 16 15 15 15 14 14 13 13 12 12 12 12 12 12 13 13 13 14 14 14 14 14 13 13 12 11 11 12 13 13 11 12 15 16 17 17 15 14
22 18 17 17 17 16 15 15 14 14 14 13 12 12 12 12 12 12 12 13 13 13 13 14 14 14 13 12 11 10 9 8 8 8 5 9 10 14 15 15 15 14 14
20 18 18 18 17 16 15 15 14 14 13 13 12 12 11 11 11 12 12 12 13 13 13 13 13 13 12 11 9 7 5 4 4 4 8 10 9 12 14 14 13 13 13
20 19 18 18 17 16 15 15 14 14 13 12 12 12 11 11 12 12 12 12 12 13 13 13 12 12 11 9 7 4 2 1 2 6 9 10 9 11 13 13 13 13 12
20 19 18 18 18 17 16 15 14 13 13 12 12 12 11 12 12 12 12 12 12 12 12 12 12 11 10 8 5 2 1 4 2 8 9 9 9 11 12 12 12 12 12
20 19 17 18 18 16 16 15 14 14 13 12 12 12 11 12 12 12 12 12 12 12 11 11 10 10 8 6 3 0 2 6 4 11 10 9 10 11 12 12 11 11 11
20 19 16 16 15 16 15 15 14 14 13 13 12 12 12 12 12 12 11 11 11 11 10 10 9 9 7 5 2 2 3 5 1 7 12 8 10 11 12 11 11 10 10
18 18 16 16 14 13 13 14 14 14 13 13 13 12 12 12 12 12 11 10 11 10 9 9 8 7 6 4 3 4 4 6 1 8 8 9 12 12 11 11 10 10 10
15 16 16 17 14 13 13 14 14 14 13 13 11 13 12 9 10 9 11 11 10 9 9 8 7 6 5 5 5 5 4 2 5 7 7 12 12 12 11 10 10 10 9
13 14 14 16 14 13 12 11 9 10 10 9 8 9 7 5 6 9 12 11 10 9 8 8 7 6 5 4 5 6 3 1 4 7 8 14 12 12 11 10 9 9 9
11 11 13 13 12 11 9 9 7 6 7 8 9 8 5 5 6 7 5 6 6 8 6 6 6 5 4 2 2 3 2 2 3 6 9 13 12 11 10 9 9 9 8
10 9 10 12 10 8 9 8 7 6 6 6 7 7 5 3 4 5 4 5 5 3 3 4 3 3 3 2 2 2 0 3 5 6 8 13 12 11 10 9 9 9 8
10 10 9 10 8 6 6 5 7 6 7 7 6 5 5 3 3 4 3 3 4 3 3 2 1 2 2 1 1 1 1 3 6 7 6 12 11 10 10 9 8 8 8
10 9 9 10 9 6 5 3 3 4 5 6 6 6 5 4 3 3 3 2 2 3 2 2 2 2 1 1 1 1 1 2 4 7 7 8 11 10 10 9 9 9 9
10 9 9 10 10 8 6 5 4 3 5 5 5 6 5 5 5 3 3 3 2 3 3 2 2 2 3 2 2 1 2 2 3 4 6 5 6 9 10 9 9 9 9
10 9 10 10 11 9 6 4 3 3 4 4 5 5 5 6 6 4 3 3 3 3 3 2 2 2 1 1 1 1 2 2 3 3 4 6 5 6 8 10 9 9 9
9 9 10 9 11 10 7 4 3 3 4 4 4 5 5 6 6 4 3 3 3 3 3 3 3 1 1 1 1 2 1 2 2 4 4 5 5 6 6 9 10 10 10
9 9 9 9 10 9 6 4 3 3 3 4 4 4 6 5 6 4 4 4 3 3 2 2 3 2 1 1 2 1 1 1 2 2 3 3 4 6 7 8 6 7 11
10 9 9 9 9 8 6 6 5 5 4 4 5 6 6 6 6 4 3 4 2 2 3 4 3 2 1 1 1 1 2 3 3 2 2 1 2 4 5 7 6 5 5
10 10 9 9 9 9 7 6 5 5 4 5 4 6 6 6 6 6 4 4 3 3 3 3 2 1 2 2 1 1 1 2 2 4 3 3 3 3 4 7 6 5 5
10 10 9 9 9 9 9 6 6 4 4 4 6 5 5 6 5 3 6 4 4 4 4 4 4 3 1 1 2 1 0 1 2 1 3 3 3 2 2 3 6 6 6
10 9 8 8 8 8 9 8 10 7 6 6 5 5 5 6 6 5 6 5 4 3 5 5 5 3 2 2 2 1 0 1 0 1 1 2 4 4 3 3 4 5 5
10 9 8 8 7 7 8 9 9 7 6 5 5 7 6 5 6 6 5 5 4 3 4 3 3 2 2 2 1 2 2 2 3 2 2 2 2 3 4 3 2 3 5
9 9 9 8 8 8 8 8 8 8 7 7 7 7 6 5 5 6 6 5 5 4 4 3 3 4 1 1 1 1 1 2 2 2 2 3 3 3 4 3 3 3 3
Wind_Direction
123 127 129 129 128 127 126 126 123 119 117 113 108 102 99 97 95 95 96 97 96 97 97 95 93 91 90 90 90 92 94 96 97 97 95 93 91 91 97 103 98 93 96
123 128 129 130 130 129 128 127 127 124 121 116 112 108 105 102 100 99 99 100 99 98 98 97 95 95 94 95 96 99 102 105 107 108 104 94 88 87 88 90 92 100 101
123 129 131 130 131 131 129 129 129 127 123 120 117 114 110 107 105 104 103 102 101 101 102 101 99 97 98 99 101 105 110 115 123 128 121 104 92 86 89 93 99 102 101
127 135 132 133 133 133 133 132 131 129 127 125 122 119 116 113 111 109 106 104 104 104 103 103 101 100 100 102 106 112 119 130 143 148 128 106 97 93 94 97 100 103 103
129 128 130 136 135 135 135 134 133 132 131 128 125 122 119 117 115 112 110 108 107 106 105 105 104 103 103 106 112 119 127 143 169 140 95 91 92 101 100 99 100 102 103
129 129 134 137 137 137 137 136 135 134 133 131 129 125 121 118 114 112 112 111 109 108 107 108 107 106 107 111 117 121 119 254 264 109 104 104 103 106 104 103 102 102 104
133 130 138 140 139 140 140 139 138 137 135 133 131 128 126 122 117 115 114 113 111 110 110 109 109 110 112 117 124 132 306 307 280 101 98 100 107 109 107 106 105 106 106
132 132 137 142 142 142 143 143 143 141 140 137 135 133 130 126 122 121 118 117 115 114 114 113 112 113 116 122 130 208 307 307 84 107 103 103 116 115 113 111 110 108 109
132 133 143 145 145 146 146 147 146 144 143 140 137 136 133 129 128 127 123 122 120 119 119 118 118 119 124 133 164 271 298 312 356 118 113 112 120 119 118 117 116 115 114
136 140 149 149 148 151 151 152 151 148 146 144 144 142 138 136 137 137 133 126 125 125 124 124 126 129 138 160 206 259 298 310 117 103 107 123 128 125 124 124 122 121 119
142 146 154 150 154 158 156 153 154 153 152 150 152 153 153 157 151 155 131 134 134 134 134 136 142 147 158 186 219 252 285 268 108 100 107 129 133 130 128 129 127 126 125
148 153 155 152 157 164 158 148 160 163 159 170 161 168 183 169 148 135 134 142 145 149 153 161 167 176 199 197 208 226 248 219 113 115 127 137 136 135 133 134 134 133 133
156 156 152 151 157 163 144 157 165 162 160 181 166 178 183 150 134 130 146 148 159 169 180 169 188 205 196 202 196 222 221 113 105 112 134 141 140 141 142 144 143 142 142
161 157 151 150 156 154 150 164 161 156 168 170 162 182 163 155 145 145 151 166 173 182 177 184 205 176 160 186 203 250 15 100 107 115 144 146 145 149 152 153 153 153 153
161 161 154 145 145 143 142 161 164 157 167 154 154 169 150 149 140 140 143 164 175 160 176 196 191 133 137 184 246 175 89 97 119 124 137 152 152 157 161 164 166 165 164
168 166 152 143 141 144 147 160 140 150 149 146 151 157 156 140 129 135 143 170 167 159 163 167 160 148 176 179 231 101 78 78 106 129 144 157 164 166 169 172 174 175 174
169 167 156 150 147 155 160 172 159 154 147 141 142 148 156 147 142 158 157 177 168 142 146 159 165 170 183 185 194 154 126 115 112 126 144 157 168 177 179 180 180 181 183
167 163 161 165 155 157 165 176 155 155 141 140 141 149 161 151 153 166 166 173 154 153 166 165 188 180 172 166 168 180 142 138 148 158 162 166 169 173 184 189 185 185 189
158 157 161 159 154 160 169 168 159 151 143 141 143 149 162 160 160 175 163 146 170 168 178 187 146 133 117 124 190 180 188 173 164 187 177 170 167 160 168 185 191 190 194
154 157 159 157 157 159 161 159 163 161 155 152 150 155 165 167 171 181 156 161 184 172 159 102 97 87 90 238 252 163 209 193 186 168 185 177 172 169 170 171 180 193 199
157 160 164 166 160 160 164 169 176 176 172 166 161 164 172 174 172 190 160 160 183 155 140 137 131 154 217 218 230 188 211 202 179 177 187 158 178 167 162 162 177 178 188
162 165 170 171 169 171 171 173 175 175 174 172 160 164 175 173 174 187 153 171 166 139 139 137 136 176 223 187 221 215 203 189 208 192 171 183 186 163 170 175 169 170 183
169 175 179 177 176 179 172 168 168 167 179 167 160 167 175 173 183 183 158 172 155 165 155 166 171 197 232 187 212 251 236 160 183 179 196 176 162 171 191 171 173 176 185
172 174 173 177 178 179 174 175 175 176 182 175 167 164 171 176 181 185 168 165 168 173 152 182 176 191 206 227 188 198 197 116 142 146 235 189 177 180 197 210 176 177 173
170 171 172 172 176 177 178 180 180 181 182 172 166 158 169 178 186 186 173 165 170 180 162 166 142 185 203 238 230 193 187 185 219 185 206 200 195 183 183 190 181 173 169
169 172 174 174 177 179 182 185 188 186 181 175 170 163 171 173 182 186 177 168 177 179 161 154 162 190 223 270 317 302 195 203 217 208 196 202 198 190 179 171 175 188 182